Location: Girdwood
(60.9430°N, 149.1660°W)
Time: 19:20:36
(UTC-08:00)

Amateur Radio Satellites - All Passes

Search period start: 28 March 2017 18:50
Search period end: 29 March 2017 18:50
Location: Girdwood, 60.9430°N, 149.1660°W

Satellite Date Start Highest point End Downlink Frequencies (MHz)
Time Altitude Azimuth
CUBESAT XI-V 28 Mar 18:59:26 19:04:06 67° 105° (ESE) 19:08:45 437.345
KKS-1 28 Mar 19:00:44 19:05:17 78° 107° (ESE) 19:09:46 437.445
AAUSAT CUBESAT 2 28 Mar 19:09:16 19:11:57 17° 48° (NE) 19:14:40 437.432
O/OREOS (USA 219) 28 Mar 19:09:40 19:14:14 87° 130° (SE) 19:18:53 437.305
XW-2A 28 Mar 19:10:26 19:13:30 31° 61° (ENE) 19:16:36 145.665 - 145.685
UWE-3 28 Mar 19:13:24 19:16:39 19° 48° (NE) 19:19:50 435.000/436.395/437.385
DOVE 4 28 Mar 19:17:16 19:22:07 55° 260° (W) 19:27:15 437.250
XW-2F 28 Mar 19:19:52 19:23:35 55° 259° (WSW) 19:27:19 145.980 - 146.000
PCSat 28 Mar 19:21:21 19:26:24 40° 236° (WSW) 19:31:25 145.827
YUBILEINY 28 Mar 19:22:25 19:31:12 77° 72° (ENE) 19:39:56 435.215
LilacSat-2 28 Mar 19:25:56 19:29:38 46° 261° (W) 19:33:19 437.200
STARS 28 Mar 19:29:53 19:34:21 73° 106° (ESE) 19:38:47 437.465
SEEDS 28 Mar 19:30:59 19:34:44 34° 59° (ENE) 19:38:30 437.485
Oscar 11 28 Mar 19:36:52 19:39:33 16° 45° (NE) 19:42:16 .
NUDT-PHONESAT 28 Mar 19:37:58 19:41:34 43° 261° (W) 19:45:09 437.300
MOZHAYETS 4 28 Mar 19:38:25 19:42:07 25° 309° (NW) 19:45:48
CUTE-I 28 Mar 19:39:50 19:45:03 50° 260° (W) 19:50:19 437.470
CUTE 1.7 + AOD 2 28 Mar 19:42:18 19:46:23 52° 66° (ENE) 19:50:31 437.475
BEESAT 28 Mar 19:44:03 19:47:14 18° 318° (NW) 19:50:24 436.000
XW-2D 28 Mar 19:47:58 19:51:24 31° 265° (W) 19:54:49 145.860 - 145.880
ZACube-1 28 Mar 19:48:08 19:51:32 22° 51° (NE) 19:54:54 437.345
KAITUO 1B 28 Mar 19:48:44 19:52:13 35° 263° (W) 19:55:40 145.475/437.950
CUBEBUG 2 28 Mar 19:50:53 19:55:18 40° 61° (ENE) 19:59:39 437.445
XW-2B 28 Mar 19:54:06 19:57:26 28° 266° (W) 20:00:47 145.730 - 145.750
HO-68 28 Mar 19:54:24 20:01:34 86° 66° (ENE) 20:08:47 435.675
SO-50 28 Mar 19:58:02 20:02:33 54° 358° (N) 20:07:00 436.795
ITUPSAT 1 28 Mar 20:02:15 20:04:59 15° 323° (NW) 20:07:43 437.325
XW-2C 28 Mar 20:04:43 20:07:51 24° 268° (W) 20:10:58 145.795 - 145.815
DELFI C3 28 Mar 20:07:29 20:08:51 12° 41° (NE) 20:10:13 145.870
AO-73 28 Mar 20:14:25 20:18:15 29° 56° (NE) 20:22:01 145.935
M-CUBED/EXP-1 PRIME 28 Mar 20:34:39 20:39:00 40° 105° (ESE) 20:43:26 437.505
RS-15 28 Mar 20:37:08 20:49:38 89° 29° (NNE) 21:01:48 29.354- 29.394
CUBESAT XI-V 28 Mar 20:37:11 20:41:13 30° 305° (NW) 20:45:17 437.345
KKS-1 28 Mar 20:37:43 20:41:30 27° 308° (NW) 20:45:14 437.445
AAUSAT CUBESAT 2 28 Mar 20:42:43 20:46:48 68° 69° (ENE) 20:50:55 437.432
XW-2A 28 Mar 20:42:58 20:46:14 39° 261° (W) 20:49:31 145.665 - 145.685
UWE-3 28 Mar 20:47:53 20:52:29 70° 69° (ENE) 20:57:00 435.000/436.395/437.385
O/OREOS (USA 219) 28 Mar 20:50:01 20:54:11 33° 331° (NNW) 20:58:23 437.305
STRAND 1 28 Mar 20:52:40 20:57:19 33° 94° (E) 21:01:55 437.568
DOVE 4 28 Mar 20:58:29 21:01:01 14° 283° (WNW) 21:03:39 437.250
SEEDS 28 Mar 21:06:19 21:10:21 49° 260° (W) 21:14:26 437.485
STARS 28 Mar 21:06:38 21:10:24 27° 307° (NW) 21:14:08 437.465
PCSat 28 Mar 21:07:16 21:08:26 11° 258° (WSW) 21:09:37 145.827
Oscar 11 28 Mar 21:10:44 21:14:59 60° 67° (ENE) 21:19:15 .
CUTE 1.7 + AOD 2 28 Mar 21:18:44 21:22:28 30° 266° (W) 21:26:15 437.475
YUBILEINY 28 Mar 21:19:38 21:27:30 40° 278° (W) 21:35:23 435.215
ZACube-1 28 Mar 21:22:50 21:27:21 85° 70° (ENE) 21:31:47 437.345
CUTE-I 28 Mar 21:24:05 21:26:27 13° 282° (WNW) 21:28:49 437.470
CUBEBUG 2 28 Mar 21:27:19 21:31:55 48° 261° (W) 21:36:26 437.445
SO-50 28 Mar 21:38:53 21:43:27 73° 21° (NNE) 21:47:58 436.795
DELFI C3 28 Mar 21:39:02 21:42:45 41° 63° (ENE) 21:46:30 145.870
HO-68 28 Mar 21:43:51 21:50:09 33° 269° (W) 21:56:30 435.675
AO-73 28 Mar 21:49:48 21:54:15 66° 256° (WSW) 21:58:39 145.935
M-CUBED/EXP-1 PRIME 28 Mar 22:09:07 22:13:33 51° 305° (NW) 22:18:05 437.505
CUBESAT XI-V 28 Mar 22:16:14 22:17:22 11° 327° (NNW) 22:18:29 437.345
AO-85 28 Mar 22:19:08 22:22:43 27° 129° (SE) 22:26:11 145.980
ESTCUBE 1 28 Mar 22:19:12 22:22:28 20° 47° (NE) 22:25:44 437.505/2401.250
AAUSAT CUBESAT 2 28 Mar 22:19:23 22:22:42 23° 270° (W) 22:26:01 437.432
UWE-3 28 Mar 22:25:28 22:29:21 26° 269° (W) 22:33:11 435.000/436.395/437.385
LO-87 28 Mar 22:26:09 22:29:03 23° 56° (NE) 22:31:59 145.935 - 145.965
O/OREOS (USA 219) 28 Mar 22:31:19 22:34:52 21° 356° (N) 22:38:26 437.305
STRAND 1 28 Mar 22:31:47 22:36:52 63° 296° (WNW) 22:41:55 437.568
Oscar 11 28 Mar 22:47:43 22:51:27 28° 268° (W) 22:55:12 .
RS-15 28 Mar 22:49:49 23:01:30 52° 239° (WSW) 23:12:48 29.354- 29.394
DX 1 28 Mar 22:50:39 22:52:00 11° 34° (NE) 22:53:22 434.975-435.025
ZACube-1 28 Mar 23:00:49 23:04:12 21° 272° (W) 23:07:33 437.345
TIGRISAT 28 Mar 23:04:16 23:07:24 18° 86° (E) 23:10:29 435.000
BEESAT 3 28 Mar 23:05:33 23:07:38 14° 117° (ESE) 23:09:44 437.485
CUBEBUG 2 28 Mar 23:08:22 23:09:40 11° 282° (WNW) 23:10:57 437.445
50 SAT 28 Mar 23:10:26 23:11:28 11° 44° (NE) 23:12:28 437.505
PRISM 28 Mar 23:12:44 23:16:29 31° 95° (E) 23:20:14 437.425
Tancredo 1 28 Mar 23:13:37 23:15:14 13° 165° (SSE) 23:16:50 437.200
DELFI C3 28 Mar 23:14:00 23:17:38 35° 263° (W) 23:21:19 145.870
UNISAT 6 28 Mar 23:15:03 23:18:38 23° 89° (E) 23:22:08 437.425
YUBILEINY 28 Mar 23:18:09 23:21:47 13° 304° (NW) 23:25:25 435.215
SO-50 28 Mar 23:19:30 23:23:50 45° 225° (SW) 23:28:07 436.795
VELOX 1 28 Mar 23:19:36 23:23:07 23° 50° (NE) 23:26:39 145.980
UKube-1 28 Mar 23:24:08 23:26:18 14° 39° (NE) 23:28:29 .
ISS 28 Mar 23:25:38 23:27:30 14° 166° (SSE) 23:29:22 437.550
BEESAT 2 28 Mar 23:28:27 23:29:30 11° 114° (ESE) 23:30:34 435.950
AO-73 28 Mar 23:28:54 23:31:20 14° 277° (W) 23:33:46 145.935
SPROUT 28 Mar 23:43:03 23:46:42 27° 54° (NE) 23:50:22 437.525
M-CUBED/EXP-1 PRIME 28 Mar 23:44:07 23:47:14 19° 325° (NW) 23:50:25 437.505
FO-29 28 Mar 23:47:49 23:53:24 32° 89° (E) 23:58:26 435.910
ESTCUBE 1 28 Mar 23:54:12 23:58:40 74° 68° (ENE) 00:03:10 437.505/2401.250
LO-87 28 Mar 23:58:37 00:02:14 65° 257° (WSW) 00:05:53 145.935 - 145.965
AO-85 28 Mar 23:58:38 00:02:47 90° 191° (S) 00:06:47 145.980
STRAND 1 29 Mar 00:11:33 00:15:17 21° 318° (NW) 00:19:00 437.568
O/OREOS (USA 219) 29 Mar 00:11:47 00:15:41 26° 21° (NNE) 00:19:36 437.305
AIST 2D 29 Mar 00:21:07 00:23:14 15° 87° (E) 00:25:20 435.315
DX 1 29 Mar 00:23:10 00:27:05 33° 56° (ENE) 00:31:02 434.975-435.025
BEESAT 29 Mar 00:33:21 00:34:51 11° 30° (NNE) 00:36:21 436.000
TIGRISAT 29 Mar 00:40:17 00:44:49 87° 111° (ESE) 00:49:11 435.000
50 SAT 29 Mar 00:40:25 00:43:45 46° 65° (ENE) 00:47:08 437.505
BEESAT 3 29 Mar 00:40:36 00:44:28 52° 138° (SE) 00:48:24 437.485
NANOSAT C BR1 29 Mar 00:41:04 00:43:45 16° 85° (E) 00:46:25 145.865
EO-79 29 Mar 00:47:12 00:50:17 19° 87° (E) 00:53:20 145.935-145.965
PRISM 29 Mar 00:47:56 00:51:59 51° 296° (WNW) 00:56:02 437.425
Tancredo 1 29 Mar 00:48:29 00:50:29 16° 185° (S) 00:52:30 437.200
ITUPSAT 1 29 Mar 00:50:29 00:52:43 13° 34° (NE) 00:54:57 437.325
UNISAT 6 29 Mar 00:51:23 00:55:53 76° 290° (WNW) 01:00:15 437.425
VELOX 1 29 Mar 00:54:40 00:59:07 90° 268° (W) 01:03:37 145.980
UKube-1 29 Mar 00:57:20 01:01:26 44° 61° (ENE) 01:05:35 .
ISS 29 Mar 01:00:58 01:03:07 16° 186° (S) 01:05:15 437.550
SO-50 29 Mar 01:01:23 01:03:18 13° 246° (WSW) 01:05:13 436.795
BEESAT 2 29 Mar 01:02:33 01:06:21 42° 135° (SE) 01:10:12 435.950
RS-15 29 Mar 01:03:10 01:10:53 20° 267° (W) 01:18:29 29.354- 29.394
POLYITAN 1 29 Mar 01:15:52 01:19:39 30° 94° (E) 01:23:23 437.675
SPROUT 29 Mar 01:18:02 01:22:21 69° 256° (WSW) 01:26:41 437.525
M-CUBED/EXP-1 PRIME 29 Mar 01:19:58 01:20:17 10° 347° (NNW) 01:20:36 437.505
QB50P2 29 Mar 01:20:34 01:24:30 34° 95° (E) 01:28:23 145.880/145.840
DUCHIFAT 1 29 Mar 01:28:24 01:32:15 32° 95° (E) 01:36:03 145.980
ESTCUBE 1 29 Mar 01:32:19 01:35:58 24° 270° (W) 01:39:39 437.505/2401.250
FO-29 29 Mar 01:32:48 01:39:12 74° 294° (WNW) 01:44:50 435.910
BUGSAT 1 29 Mar 01:33:35 01:36:27 17° 86° (E) 01:39:16 437.445
LO-87 29 Mar 01:35:14 01:36:27 11° 277° (W) 01:37:40 145.935 - 145.965
AO-85 29 Mar 01:39:31 01:43:29 49° 353° (N) 01:47:19 145.980
O/OREOS (USA 219) 29 Mar 01:51:21 01:55:57 61° 45° (NE) 02:00:32 437.305
AIST 2D 29 Mar 01:53:27 01:56:59 85° 286° (WNW) 02:00:29 435.315
DX 1 29 Mar 01:58:51 02:03:09 55° 258° (WSW) 02:07:29 434.975-435.025
MOZHAYETS 4 29 Mar 02:00:44 02:03:34 16° 43° (NE) 02:06:23
Oscar 19 29 Mar 02:02:45 02:05:49 16° 82° (E) 02:08:53 437.125/150
BEESAT 29 Mar 02:07:14 02:11:21 30° 53° (NE) 02:15:30 436.000
50 SAT 29 Mar 02:14:03 02:16:59 25° 266° (W) 02:19:59 437.505
NANOSAT C BR1 29 Mar 02:15:55 02:20:11 79° 105° (ESE) 02:24:25 145.865
TIGRISAT 29 Mar 02:17:29 02:21:03 24° 309° (NW) 02:24:33 435.000
BEESAT 3 29 Mar 02:18:07 02:22:06 61° 341° (NNW) 02:26:07 437.485
EO-79 29 Mar 02:22:21 02:26:40 88° 282° (WNW) 02:30:54 145.935-145.965
PRISM 29 Mar 02:24:13 02:26:30 15° 317° (NW) 02:28:47 437.425
ITUPSAT 1 29 Mar 02:25:03 02:29:26 37° 56° (NE) 02:33:50 437.325
UNISAT 6 29 Mar 02:28:43 02:31:59 20° 313° (NW) 02:35:12 437.425
VELOX 1 29 Mar 02:33:00 02:36:14 19° 273° (W) 02:39:29 145.980
UKube-1 29 Mar 02:33:30 02:37:34 39° 262° (W) 02:41:40 .
Gurwin Techsat 1B 29 Mar 02:39:31 02:43:15 19° 84° (E) 02:46:58 435.225
BEESAT 2 29 Mar 02:40:01 02:44:02 68° 337° (NNW) 02:48:07 435.950
POLYITAN 1 29 Mar 02:51:32 02:55:43 54° 295° (WNW) 02:59:50 437.675
QB50P2 29 Mar 02:56:21 03:00:28 48° 297° (WNW) 03:04:33 145.880/145.840
SPROUT 29 Mar 02:56:41 02:59:05 15° 277° (W) 03:01:30 437.525
KKS-1 29 Mar 02:58:05 03:00:45 16° 41° (NE) 03:03:26 437.445
CUBESAT XI-V 29 Mar 03:01:10 03:03:33 14° 39° (NE) 03:05:57 437.345
DUCHIFAT 1 29 Mar 03:04:00 03:08:08 50° 296° (WNW) 03:12:12 145.980
BUGSAT 1 29 Mar 03:08:12 03:12:28 86° 111° (ESE) 03:16:38 437.445
FO-29 29 Mar 03:18:11 03:23:25 27° 320° (NW) 03:28:12 435.910
AO-85 29 Mar 03:20:23 03:24:20 58° 17° (NNE) 03:28:13 145.980
STARS 29 Mar 03:26:23 03:28:50 15° 40° (NE) 03:31:17 437.465
AIST 2D 29 Mar 03:27:29 03:29:45 16° 308° (NW) 03:31:59 435.315
O/OREOS (USA 219) 29 Mar 03:31:00 03:35:13 36° 247° (WSW) 03:39:25 437.305
MOZHAYETS 4 29 Mar 03:35:27 03:39:56 54° 64° (ENE) 03:44:24
DX 1 29 Mar 03:38:40 03:40:21 12° 279° (W) 03:42:02 434.975-435.025
Oscar 19 29 Mar 03:41:04 03:46:13 62° 103° (ESE) 03:51:22 437.125/150
BEESAT 29 Mar 03:44:03 03:48:51 73° 253° (WSW) 03:53:39 436.000
NANOSAT C BR1 29 Mar 03:52:07 03:55:33 24° 308° (NW) 03:58:57 145.865
ITAMSAT 1 29 Mar 03:55:57 03:59:10 16° 82° (E) 04:02:22 435.822/435.867
BEESAT 3 29 Mar 03:56:16 04:00:11 48° 4° (N) 04:04:07 437.485
EO-79 29 Mar 03:58:42 04:01:57 21° 310° (NW) 04:05:10 145.935-145.965
ITUPSAT 1 29 Mar 04:02:27 04:07:11 56° 258° (WSW) 04:11:55 437.325
BEESAT 2 29 Mar 04:18:19 04:22:16 47° 1° (N) 04:26:13 435.950
Gurwin Techsat 1B 29 Mar 04:18:47 04:24:10 73° 106° (ESE) 04:29:29 435.225
M-CUBED/EXP-1 PRIME 29 Mar 04:23:17 04:26:02 17° 32° (NNE) 04:28:54 437.505
POLYITAN 1 29 Mar 04:28:14 04:30:43 15° 317° (NW) 04:33:11 437.675
AO-7 29 Mar 04:31:59 04:39:00 29° 88° (E) 04:45:58 .
KKS-1 29 Mar 04:32:08 04:36:29 51° 63° (ENE) 04:40:52 437.445
QB50P2 29 Mar 04:33:11 04:35:24 14° 319° (NW) 04:37:38 145.880/145.840
CUBESAT XI-V 29 Mar 04:35:37 04:39:58 43° 61° (ENE) 04:44:21 437.345
DUCHIFAT 1 29 Mar 04:40:42 04:42:59 14° 318° (NW) 04:45:15 145.980
BUGSAT 1 29 Mar 04:44:06 04:47:24 22° 309° (NW) 04:50:39 437.445
STARS 29 Mar 05:00:02 05:04:17 47° 62° (ENE) 05:08:35 437.465
AO-85 29 Mar 05:00:54 05:04:46 55° 220° (SW) 05:08:37 145.980
FO-29 29 Mar 05:03:14 05:06:33 15° 345° (NNW) 05:09:42 435.910
STRAND 1 29 Mar 05:04:40 05:07:02 13° 30° (NNE) 05:09:25 437.568
MOZHAYETS 4 29 Mar 05:13:10 05:17:20 33° 265° (W) 05:21:31
Oscar 19 29 Mar 05:20:41 05:25:24 37° 305° (NW) 05:30:07 437.125/150
BEESAT 29 Mar 05:24:21 05:27:29 17° 275° (W) 05:30:37 436.000
BEESAT 3 29 Mar 05:34:06 05:38:10 79° 27° (NNE) 05:42:13 437.485
ITAMSAT 1 29 Mar 05:34:29 05:39:42 64° 104° (ESE) 05:44:52 435.822/435.867
ITUPSAT 1 29 Mar 05:43:50 05:46:05 13° 279° (W) 05:48:21 437.325
M-CUBED/EXP-1 PRIME 29 Mar 05:55:44 05:59:39 49° 54° (NE) 06:03:53 437.505
BEESAT 2 29 Mar 05:56:23 06:00:27 70° 23° (NNE) 06:04:32 435.950
Gurwin Techsat 1B 29 Mar 05:59:06 06:03:50 33° 308° (NW) 06:08:34 435.225
KKS-1 29 Mar 06:09:07 06:13:15 35° 264° (W) 06:17:23 437.445
CUBESAT XI-V 29 Mar 06:13:03 06:17:25 42° 262° (W) 06:21:51 437.345
AO-7 29 Mar 06:24:44 06:33:06 80° 113° (ESE) 06:41:26 .
STARS 29 Mar 06:36:37 06:40:46 38° 263° (W) 06:44:57 437.465
STRAND 1 29 Mar 06:40:22 06:44:57 33° 53° (NE) 06:49:31 437.568
AO-85 29 Mar 06:42:16 06:44:24 14° 241° (WSW) 06:46:33 145.980
YUBILEINY 29 Mar 06:43:31 06:49:19 20° 66° (ENE) 06:55:06 435.215
FO-29 29 Mar 06:46:03 06:49:14 14° 11° (N) 06:52:17 435.910
LilacSat-2 29 Mar 06:50:17 06:51:45 12° 83° (E) 06:53:11 437.200
NUDT-PHONESAT 29 Mar 06:59:50 07:01:04 11° 83° (E) 07:02:17 437.300
Oscar 19 29 Mar 07:00:51 07:03:32 14° 328° (NNW) 07:06:12 437.125/150
DOVE 4 29 Mar 07:05:34 07:10:06 27° 88° (E) 07:14:36 437.250
KAITUO 1B 29 Mar 07:10:29 07:12:30 14° 85° (E) 07:14:31 145.475/437.950
XW-2D 29 Mar 07:10:30 07:13:01 17° 87° (E) 07:15:31 145.860 - 145.880
BEESAT 3 29 Mar 07:11:53 07:15:33 33° 229° (SW) 07:19:12 437.485
HO-68 29 Mar 07:13:57 07:14:57 10° 68° (ENE) 07:15:58 435.675
ITAMSAT 1 29 Mar 07:14:15 07:19:00 36° 306° (NW) 07:23:43 435.822/435.867
XW-2B 29 Mar 07:16:25 07:19:06 18° 88° (E) 07:21:45 145.730 - 145.750
XW-2C 29 Mar 07:26:34 07:29:33 22° 91° (E) 07:32:31 145.795 - 145.815
M-CUBED/EXP-1 PRIME 29 Mar 07:30:33 07:34:16 36° 257° (WSW) 07:38:16 437.505
BEESAT 2 29 Mar 07:34:18 07:38:09 41° 225° (SW) 07:41:59 435.950
Gurwin Techsat 1B 29 Mar 07:39:52 07:42:28 14° 331° (NNW) 07:45:04 435.225
CUTE-I 29 Mar 07:46:07 07:50:58 33° 93° (E) 07:55:47 437.470
XW-2F 29 Mar 08:15:58 08:19:39 53° 101° (ESE) 08:23:19 145.980 - 146.000
AO-7 29 Mar 08:17:46 08:25:32 46° 318° (NW) 08:33:17 .
STRAND 1 29 Mar 08:18:44 08:23:53 70° 255° (WSW) 08:29:03 437.568
LilacSat-2 29 Mar 08:23:01 08:26:49 66° 104° (ESE) 08:30:34 437.200
FO-29 29 Mar 08:26:52 08:32:15 23° 36° (NE) 08:37:14 435.910
NUDT-PHONESAT 29 Mar 08:32:04 08:35:47 64° 104° (ESE) 08:39:26 437.300
YUBILEINY 29 Mar 08:35:51 08:44:19 58° 92° (E) 08:52:48 435.215
PRISM 29 Mar 08:37:38 08:40:41 20° 49° (NE) 08:43:45 437.425
TIGRISAT 29 Mar 08:37:46 08:40:34 16° 43° (NE) 08:43:22 435.000
SEEDS 29 Mar 08:40:16 08:42:59 16° 85° (E) 08:45:41 437.485
DOVE 4 29 Mar 08:42:59 08:48:20 80° 290° (WNW) 08:53:38 437.250
KAITUO 1B 29 Mar 08:43:26 08:47:10 81° 106° (ESE) 08:50:53 145.475/437.950
XW-2D 29 Mar 08:43:58 08:47:46 84° 284° (WNW) 08:51:31 145.860 - 145.880
NO-84 29 Mar 08:47:11 08:48:45 14° 153° (SSE) 08:50:21 435.350 FM
UNISAT 6 29 Mar 08:48:23 08:51:35 19° 46° (NE) 08:54:46 437.425
XW-2B 29 Mar 08:50:00 08:53:47 77° 289° (WNW) 08:57:32 145.730 - 145.750
CUTE 1.7 + AOD 2 29 Mar 08:52:43 08:56:19 26° 92° (E) 08:59:55 437.475
ITAMSAT 1 29 Mar 08:54:31 08:57:14 14° 329° (NNW) 08:59:58 435.822/435.867
HO-68 29 Mar 08:58:30 09:05:05 37° 94° (E) 09:11:38 435.675
XW-2C 29 Mar 09:00:23 09:04:08 62° 291° (WNW) 09:07:50 145.795 - 145.815
CUBEBUG 2 29 Mar 09:08:09 09:11:36 21° 87° (E) 09:14:58 437.445
BEESAT 2 29 Mar 09:14:04 09:14:59 11° 246° (WSW) 09:15:54 435.950
CUTE-I 29 Mar 09:26:05 09:31:26 67° 295° (WNW) 09:36:44 437.470
XW-2A 29 Mar 09:27:26 09:30:48 52° 102° (ESE) 09:34:07 145.665 - 145.685
AO-73 29 Mar 09:28:39 09:30:48 14° 82° (E) 09:32:55 145.935
AAUSAT CUBESAT 2 29 Mar 09:50:02 09:53:48 32° 95° (E) 09:57:33 437.432
XW-2F 29 Mar 09:50:26 09:53:38 27° 302° (WNW) 09:56:50 145.980 - 146.000
LilacSat-2 29 Mar 09:57:46 10:00:50 24° 304° (NW) 10:03:52 437.200
STRAND 1 29 Mar 10:00:37 10:04:01 18° 276° (W) 10:07:27 437.568
UWE-3 29 Mar 10:03:47 10:07:53 37° 96° (E) 10:11:51 435.000/436.395/437.385
NUDT-PHONESAT 29 Mar 10:06:28 10:09:26 23° 304° (NW) 10:12:23 437.300
FO-29 29 Mar 10:08:59 10:16:12 53° 58° (ENE) 10:22:43 435.910
NANOSAT C BR1 29 Mar 10:09:24 10:11:20 13° 40° (NE) 10:13:17 145.865
AO-7 29 Mar 10:10:08 10:16:42 27° 344° (NNW) 10:23:16 .
PRISM 29 Mar 10:11:23 10:15:29 85° 75° (ENE) 10:19:39 437.425
TIGRISAT 29 Mar 10:11:56 10:16:27 52° 64° (ENE) 10:20:56 435.000
PCSat 29 Mar 10:13:26 10:17:34 23° 113° (ESE) 10:21:43 145.827
SEEDS 29 Mar 10:15:09 10:19:22 82° 106° (ESE) 10:23:35 437.485
EO-79 29 Mar 10:15:33 10:17:54 15° 42° (NE) 10:20:14 145.935-145.965
KAITUO 1B 29 Mar 10:18:04 10:20:49 20° 307° (NW) 10:23:32 145.475/437.950
XW-2D 29 Mar 10:18:54 10:21:29 18° 309° (NW) 10:24:02 145.860 - 145.880
DOVE 4 29 Mar 10:21:09 10:25:25 25° 311° (NW) 10:29:41 437.250
UNISAT 6 29 Mar 10:23:00 10:27:37 65° 68° (ENE) 10:32:11 437.425
NO-84 29 Mar 10:23:10 10:25:35 25° 174° (S) 10:28:05 435.350 FM
Oscar 11 29 Mar 10:23:46 10:27:37 30° 94° (E) 10:31:27 .
XW-2B 29 Mar 10:25:01 10:27:28 17° 310° (NW) 10:29:54 145.730 - 145.750
CUTE 1.7 + AOD 2 29 Mar 10:28:19 10:32:30 61° 292° (WNW) 10:36:40 437.475
YUBILEINY 29 Mar 10:32:48 10:41:22 56° 298° (WNW) 10:49:56 435.215
XW-2C 29 Mar 10:35:35 10:37:42 15° 312° (NW) 10:39:48 145.795 - 145.815
ZACube-1 29 Mar 10:37:12 10:41:21 45° 98° (E) 10:45:23 437.345
DELFI C3 29 Mar 10:40:59 10:43:45 18° 87° (E) 10:46:30 145.870
POLYITAN 1 29 Mar 10:43:36 10:46:45 20° 49° (NE) 10:49:55 437.675
CUBEBUG 2 29 Mar 10:44:18 10:48:49 81° 289° (WNW) 10:53:09 437.445
HO-68 29 Mar 10:46:18 10:53:30 78° 296° (WNW) 11:00:40 435.675
QB50P2 29 Mar 10:48:09 10:51:29 22° 51° (NE) 10:54:49 145.880/145.840
DUCHIFAT 1 29 Mar 10:55:21 10:58:35 21° 50° (NE) 11:01:48 145.980
Gurwin Techsat 1B 29 Mar 10:56:56 10:58:11 11° 20° (NNE) 10:59:27 435.225
BUGSAT 1 29 Mar 10:59:42 11:01:47 13° 41° (NE) 11:03:51 437.445
XW-2A 29 Mar 11:00:34 11:03:22 24° 302° (WNW) 11:06:09 145.665 - 145.685
AO-73 29 Mar 11:03:40 11:07:56 67° 103° (ESE) 11:12:05 145.935
AIST 2D 29 Mar 11:04:41 11:07:45 28° 60° (ENE) 11:10:48 435.315
CUTE-I 29 Mar 11:06:40 11:10:44 22° 318° (NW) 11:14:47 437.470
RS-15 29 Mar 11:22:20 11:26:57 13° 84° (E) 11:31:36 29.354- 29.394
AAUSAT CUBESAT 2 29 Mar 11:25:26 11:29:27 49° 295° (WNW) 11:33:28 437.432
UWE-3 29 Mar 11:40:17 11:44:28 45° 298° (WNW) 11:48:32 435.000/436.395/437.385
NANOSAT C BR1 29 Mar 11:42:06 11:46:09 42° 62° (ENE) 11:50:12 145.865
PRISM 29 Mar 11:48:25 11:51:21 19° 272° (W) 11:54:19 437.425
EO-79 29 Mar 11:48:42 11:52:51 50° 64° (ENE) 11:57:00 145.935-145.965
TIGRISAT 29 Mar 11:49:03 11:53:20 35° 265° (W) 11:57:35 435.000
SEEDS 29 Mar 11:51:23 11:54:41 23° 307° (NW) 11:58:00 437.485
Oscar 19 29 Mar 11:52:06 11:55:40 19° 40° (NE) 11:59:15 437.125/150
FO-29 29 Mar 11:53:49 12:01:17 58° 259° (W) 12:08:03 435.910
PCSat 29 Mar 11:54:50 12:00:14 71° 136° (SE) 12:05:41 145.827
Oscar 11 29 Mar 11:59:48 12:04:01 54° 295° (WNW) 12:08:14 .
NO-84 29 Mar 12:00:14 12:02:32 21° 195° (SSW) 12:04:58 435.350 FM
DOVE 4 29 Mar 12:00:20 12:01:33 11° 334° (NNW) 12:02:45 437.250
UNISAT 6 29 Mar 12:00:40 12:04:42 28° 268° (W) 12:08:43 437.425
AO-7 29 Mar 12:00:52 12:07:16 26° 11° (N) 12:13:41 .
CUTE 1.7 + AOD 2 29 Mar 12:05:02 12:07:39 16° 314° (NW) 12:10:16 437.475
ITAMSAT 1 29 Mar 12:11:38 12:12:06 10° 18° (NNE) 12:12:34 435.822/435.867
ZACube-1 29 Mar 12:13:40 12:17:37 37° 300° (WNW) 12:21:30 437.345
DELFI C3 29 Mar 12:15:06 12:19:06 87° 292° (WNW) 12:23:07 145.870
POLYITAN 1 29 Mar 12:17:43 12:22:01 81° 70° (ENE) 12:26:20 437.675
CUBEBUG 2 29 Mar 12:21:31 12:24:53 21° 311° (NW) 12:28:09 437.445
QB50P2 29 Mar 12:22:32 12:26:50 89° 250° (WSW) 12:31:10 145.880/145.840
DUCHIFAT 1 29 Mar 12:29:30 12:33:46 86° 71° (ENE) 12:38:04 145.980
BUGSAT 1 29 Mar 12:32:12 12:36:16 45° 62° (ENE) 12:40:20 437.445
Gurwin Techsat 1B 29 Mar 12:32:23 12:36:30 23° 44° (NE) 12:40:37 435.225
YUBILEINY 29 Mar 12:33:32 12:40:30 25° 327° (NNW) 12:47:28 435.215
HO-68 29 Mar 12:34:18 12:40:29 33° 321° (NW) 12:46:39 435.675
AIST 2D 29 Mar 12:37:27 12:40:52 45° 260° (W) 12:44:18 435.315
AO-73 29 Mar 12:40:18 12:43:54 27° 305° (NW) 12:47:27 145.935
CUTE-I 29 Mar 12:47:54 12:49:07 11° 341° (NNW) 12:50:19 437.470
LO-87 29 Mar 12:49:05 12:52:33 38° 98° (E) 12:56:00 145.935 - 145.965
SPROUT 29 Mar 12:54:58 12:56:43 12° 81° (E) 12:58:27 437.525
AAUSAT CUBESAT 2 29 Mar 13:02:02 13:04:07 14° 317° (NW) 13:06:12 437.432
ESTCUBE 1 29 Mar 13:13:04 13:17:20 39° 97° (E) 13:21:35 437.505/2401.250
UWE-3 29 Mar 13:17:51 13:19:59 14° 320° (NW) 13:22:07 435.000/436.395/437.385
NANOSAT C BR1 29 Mar 13:17:55 13:21:56 39° 262° (W) 13:25:59 145.865
RS-15 29 Mar 13:24:42 13:35:31 40° 112° (ESE) 13:46:29 29.354- 29.394
EO-79 29 Mar 13:24:55 13:28:49 33° 265° (W) 13:32:43 145.935-145.965
50 SAT 29 Mar 13:28:29 13:30:20 14° 87° (E) 13:32:09 437.505
Oscar 19 29 Mar 13:29:08 13:34:09 57° 63° (ENE) 13:39:12 437.125/150
Oscar 11 29 Mar 13:36:51 13:39:23 15° 316° (NW) 13:41:55 .
DX 1 29 Mar 13:37:34 13:40:03 15° 84° (E) 13:42:32 434.975-435.025
PCSat 29 Mar 13:38:34 13:43:55 55° 339° (NNW) 13:49:17 145.827
FO-29 29 Mar 13:42:43 13:47:42 19° 281° (WNW) 13:52:26 435.910
ITAMSAT 1 29 Mar 13:46:03 13:49:54 21° 41° (NE) 13:53:45 435.822/435.867
DELFI C3 29 Mar 13:50:32 13:53:26 20° 309° (NW) 13:56:21 145.870
AO-7 29 Mar 13:50:44 13:58:15 40° 37° (NE) 14:05:46 .
ZACube-1 29 Mar 13:51:26 13:52:52 12° 322° (NW) 13:54:18 437.345
POLYITAN 1 29 Mar 13:55:04 13:58:21 21° 271° (W) 14:01:38 437.675
QB50P2 29 Mar 14:00:13 14:03:16 19° 273° (W) 14:06:19 145.880/145.840
DUCHIFAT 1 29 Mar 14:06:55 14:10:02 19° 272° (W) 14:13:10 145.980
BUGSAT 1 29 Mar 14:07:46 14:11:44 37° 263° (W) 14:15:44 437.445
UKube-1 29 Mar 14:10:18 14:13:29 19° 88° (E) 14:16:39 .
Gurwin Techsat 1B 29 Mar 14:10:28 14:15:46 71° 66° (ENE) 14:21:06 435.225
VELOX 1 29 Mar 14:10:48 14:15:07 45° 100° (E) 14:19:25 145.980
HO-68 29 Mar 14:21:41 14:26:24 19° 346° (NNW) 14:31:06 435.675
LO-87 29 Mar 14:22:39 14:26:01 34° 298° (WNW) 14:29:21 145.935 - 145.965
SPROUT 29 Mar 14:29:19 14:33:35 58° 102° (ESE) 14:37:49 437.525
YUBILEINY 29 Mar 14:35:43 14:41:18 18° 360° (N) 14:46:53 435.215
ESTCUBE 1 29 Mar 14:49:57 14:54:15 45° 298° (WNW) 14:58:34 437.505/2401.250
50 SAT 29 Mar 15:00:25 15:03:57 84° 106° (ESE) 15:07:29 437.505
Oscar 19 29 Mar 15:09:01 15:13:46 37° 265° (W) 15:18:33 437.125/150
DX 1 29 Mar 15:12:41 15:17:06 68° 106° (ESE) 15:21:29 434.975-435.025
PCSat 29 Mar 15:22:55 15:28:10 45° 5° (N) 15:33:25 145.827
ITAMSAT 1 29 Mar 15:23:26 15:28:36 63° 64° (ENE) 15:33:47 435.822/435.867
SO-50 29 Mar 15:23:37 15:26:50 19° 120° (ESE) 15:30:01 436.795
RS-15 29 Mar 15:34:26 15:46:41 80° 141° (SE) 15:59:04 29.354- 29.394
BEESAT 29 Mar 15:34:40 15:37:29 15° 83° (E) 15:40:17 436.000
AO-7 29 Mar 15:42:02 15:50:23 86° 62° (ENE) 15:58:45 .
UKube-1 29 Mar 15:45:45 15:50:08 88° 289° (WNW) 15:54:29 .
VELOX 1 29 Mar 15:47:24 15:51:35 40° 300° (WNW) 15:55:46 145.980
Gurwin Techsat 1B 29 Mar 15:51:30 15:56:12 31° 268° (W) 16:00:55 435.225
ITUPSAT 1 29 Mar 15:52:52 15:56:23 20° 87° (E) 15:59:52 437.325
CUTE-I 29 Mar 16:02:10 16:05:03 15° 31° (NNE) 16:07:57 437.470
SPROUT 29 Mar 16:05:32 16:09:20 31° 303° (WNW) 16:13:07 437.525
HO-68 29 Mar 16:07:13 16:11:52 19° 12° (NNE) 16:16:31 435.675
ESTCUBE 1 29 Mar 16:27:45 16:30:08 14° 320° (NW) 16:32:33 437.505/2401.250
50 SAT 29 Mar 16:34:07 16:36:36 18° 307° (NW) 16:39:05 437.505
YUBILEINY 29 Mar 16:35:12 16:42:07 25° 33° (NNE) 16:49:02 435.215
XW-2B 29 Mar 16:36:31 16:37:06 10° 41° (NE) 16:37:42 145.730 - 145.750
DOVE 4 29 Mar 16:44:44 16:48:31 22° 45° (NE) 16:52:26 437.250
XW-2C 29 Mar 16:45:53 16:47:20 12° 44° (NE) 16:48:46 145.795 - 145.815
DX 1 29 Mar 16:49:14 16:53:01 29° 306° (NW) 16:56:47 434.975-435.025
MOZHAYETS 4 29 Mar 16:57:10 17:01:14 31° 93° (E) 17:05:18
SO-50 29 Mar 17:02:02 17:06:35 61° 142° (SE) 17:11:06 436.795
ITAMSAT 1 29 Mar 17:03:41 17:08:26 34° 265° (W) 17:13:13 435.822/435.867
PCSat 29 Mar 17:06:49 17:12:17 68° 29° (NNE) 17:17:43 145.827
BEESAT 29 Mar 17:11:26 17:16:12 66° 105° (ESE) 17:20:57 436.000
UKube-1 29 Mar 17:22:20 17:25:42 22° 311° (NW) 17:29:04 .
VELOX 1 29 Mar 17:24:59 17:27:03 13° 322° (NW) 17:29:08 145.980
ITUPSAT 1 29 Mar 17:30:07 17:34:57 85° 108° (ESE) 17:39:44 437.325
XW-2F 29 Mar 17:33:18 17:36:16 22° 55° (NE) 17:39:14 145.980 - 146.000
AO-7 29 Mar 17:36:35 17:44:06 36° 267° (W) 17:51:40 .
CUTE-I 29 Mar 17:38:58 17:43:51 36° 53° (NE) 17:48:45 437.470
LilacSat-2 29 Mar 17:40:55 17:44:08 26° 57° (ENE) 17:47:21 437.200
SPROUT 29 Mar 17:43:29 17:44:07 10° 325° (NW) 17:44:44 437.525
RS-15 29 Mar 17:47:24 17:59:49 76° 352° (N) 18:12:12 29.354- 29.394
NUDT-PHONESAT 29 Mar 17:47:53 17:50:57 24° 57° (ENE) 17:54:01 437.300
KKS-1 29 Mar 17:49:22 17:53:06 25° 91° (E) 17:56:48 437.445
HO-68 29 Mar 17:51:39 17:57:44 32° 38° (NE) 18:03:50 435.675
O/OREOS (USA 219) 29 Mar 17:53:00 17:57:08 35° 113° (ESE) 18:01:19 437.305
CUBESAT XI-V 29 Mar 17:58:53 18:02:49 26° 91° (E) 18:06:46 437.345
KAITUO 1B 29 Mar 17:59:34 18:02:50 29° 60° (ENE) 18:06:07 145.475/437.950
XW-2D 29 Mar 18:00:55 18:04:23 35° 62° (ENE) 18:07:52 145.860 - 145.880
XW-2B 29 Mar 18:06:53 18:10:25 38° 63° (ENE) 18:13:57 145.730 - 145.750
SEEDS 29 Mar 18:08:46 18:10:16 12° 40° (NE) 18:11:46 437.485
STARS 29 Mar 18:15:33 18:19:02 22° 90° (E) 18:22:29 437.465
XW-2C 29 Mar 18:17:06 18:20:45 46° 65° (ENE) 18:24:23 145.795 - 145.815
DOVE 4 29 Mar 18:20:30 18:25:26 68° 68° (ENE) 18:30:39 437.250
CUTE 1.7 + AOD 2 29 Mar 18:21:01 18:23:43 17° 47° (NE) 18:26:26 437.475
DX 1 29 Mar 18:27:41 18:28:00 10° 328° (NNW) 18:28:19 434.975-435.025
YUBILEINY 29 Mar 18:32:44 18:41:18 55° 62° (ENE) 18:49:49 435.215
MOZHAYETS 4 29 Mar 18:34:13 18:38:42 58° 295° (WNW) 18:43:11
XW-2A 29 Mar 18:36:47 18:39:10 18° 54° (NE) 18:41:34 145.665 - 145.685
CUBEBUG 2 29 Mar 18:40:57 18:43:59 17° 45° (NE) 18:46:58 437.445
